Kecskemet, Hungary

8:30 PM CEST on July 26, 2016 (GMT +0200)
Kecskemet

Weather History for LHKE - October, 2012

Change the Weather History Date:

Saturday, October 27, 2012

  Actual Average (LHBP) Record (LHBP)
Temperature  
Mean Temperature 56 °F -  
Max Temperature 64 °F 55 °F 71 °F (2006)
Min Temperature 48 °F 37 °F 17 °F (1997)
Degree Days  
Heating Degree Days 9    
Growing Degree Days 6 (Base 50)    
Moisture  
Dew Point 49 °F    
Average Humidity 80    
Maximum Humidity 100    
Minimum Humidity 63    
Precipitation  
Precipitation 0.00 in - - ()
Sea Level Pressure  
Sea Level Pressure 29.35 in    
Wind  
Wind Speed 10 mph ()    
Max Wind Speed 16 mph    
Max Gust Speed 27 mph    
Visibility 4.9 miles    
Events Rain    
Averages and records for this station are not official NWS values.
T = Trace of Precipitation, MM = Missing Value Source: Averaged Metar Reports

Daily Weather History Graph

Daily Weather History Graph

Search for Another Location

Airport or City:

Trip Planner

Search our weather history database for the weather conditions in past years. The results will help you decide how hot, cold, wet, or windy it might be!

Date:

Astronomy

Oct. 27, 2012 Rise Set
Actual Time 7:16 AM CEST 5:32 PM CEST
Civil Twilight 6:45 AM CEST 6:03 PM CEST
Nautical Twilight 6:09 AM CEST 6:39 PM CEST
Astronomical Twilight 5:34 AM CEST 7:14 PM CEST
Moon 4:14 PM CEST (10/27) 4:47 AM CEST (10/27)
Length of Visible Light 11h 18m
Length of Day
10h 16m
Waxing Gibbous, 95% of the Moon is Illuminated
Oct 27
Waxing Gibbous
Oct 29
Full
Nov 7
Last Quarter
Nov 13
New
Nov 20
First Quarter

Hourly Weather History & Observations

Time (CEST) Temp. Dew Point Humidity Pressure Visibility Wind Dir Wind Speed Gust Speed Precip Events Conditions
12:15 AM 51.8 °F 42.8 °F 71% 29.65 in 5.0 mi SE 8.9 mph - N/A   Unknown
12:45 AM 50.0 °F 42.8 °F 76% 29.62 in 5.0 mi SE 8.9 mph - N/A   Unknown
1:15 AM 50.0 °F 42.8 °F 76% 29.62 in 5.0 mi SE 8.9 mph - N/A   Unknown
1:45 AM 50.0 °F 42.8 °F 76% 29.59 in 5.0 mi SE 8.9 mph - N/A   Unknown
2:15 AM 50.0 °F 42.8 °F 76% 29.56 in 5.0 mi SE 8.9 mph - N/A   Unknown
2:45 AM 50.0 °F 44.6 °F 82% 29.53 in 5.0 mi SE 8.9 mph - N/A   Unknown
3:15 AM 50.0 °F 44.6 °F 82% 29.53 in 5.0 mi SE 8.9 mph - N/A   Unknown
3:45 AM - - N/A% - 3.1 mi SE 8.9 mph - N/A Rain Light Rain
4:15 AM 50.0 °F 44.6 °F 82% 29.47 in 5.0 mi SSE 8.9 mph - N/A   Unknown
4:45 AM 50.0 °F 44.6 °F 82% 29.47 in 5.0 mi SE 8.9 mph - N/A   Unknown
5:15 AM 48.2 °F 44.6 °F 87% 29.44 in 5.0 mi SSE 11.2 mph - N/A   Unknown
5:45 AM 48.2 °F 44.6 °F 87% 29.42 in 5.0 mi SSE 11.2 mph - N/A   Unknown
6:15 AM 50.0 °F 44.6 °F 82% 29.42 in 5.0 mi SSE 8.9 mph - N/A   Unknown
6:45 AM - - N/A% - 3.1 mi SSE 8.9 mph - N/A Rain Light Rain
7:15 AM 51.8 °F 44.6 °F 76% 29.39 in - SSE 11.2 mph - N/A   Clear
7:45 AM 53.6 °F 44.6 °F 72% 29.39 in - SSE 11.2 mph - N/A   Clear
8:03 AM 55.4 °F 44.6 °F 67% 29.36 in 6.2 mi SSE 11.2 mph - N/A Rain Light Rain
8:15 AM 55.4 °F 44.6 °F 67% 29.36 in 6.2 mi SSE 13.4 mph - N/A Rain Light Rain
8:45 AM 55.4 °F 44.6 °F 67% 29.36 in 6.2 mi SSE 13.4 mph - N/A Rain Light Rain
9:15 AM 57.2 °F 44.6 °F 63% 29.36 in 6.2 mi South 11.2 mph 22.4 mph N/A Rain Light Rain
9:45 AM - - N/A% - 3.1 mi South 13.4 mph 26.8 mph N/A Rain Light Rain
9:52 AM 53.6 °F 50.0 °F 88% 29.33 in 3.7 mi South 11.2 mph 26.8 mph N/A Rain Light Rain
10:15 AM 53.6 °F 50.0 °F 88% 29.33 in 3.7 mi SSE 11.2 mph 22.4 mph N/A Rain Light Rain
10:45 AM 53.6 °F 51.8 °F 94% 29.33 in 3.1 mi South 11.2 mph 22.4 mph N/A Rain Light Rain
11:15 AM 55.4 °F 51.8 °F 88% 29.33 in 4.3 mi SSE 13.4 mph - N/A   Unknown
11:33 AM 55.4 °F 50.0 °F 82% 29.30 in 4.3 mi SSE 15.7 mph 26.8 mph N/A Rain Light Rain
11:45 AM 55.4 °F 50.0 °F 82% 29.30 in 5.0 mi SSE 13.4 mph 26.8 mph N/A   Unknown
12:15 PM 55.4 °F 48.2 °F 77% 29.30 in - SSE 15.7 mph 26.8 mph N/A   Clear
12:45 PM - - N/A% - 2.5 mi South 13.4 mph 26.8 mph N/A Rain Light Rain
1:15 PM 60.8 °F 50.0 °F 68% 29.27 in 6.2 mi South 13.4 mph - N/A   Mostly Cloudy
1:45 PM 60.8 °F 50.0 °F 68% 29.24 in 6.2 mi South 13.4 mph - N/A   Mostly Cloudy
2:15 PM 62.6 °F 50.0 °F 63% 29.24 in - South 13.4 mph - N/A   Clear
2:45 PM 62.6 °F 50.0 °F 63% 29.24 in 6.2 mi South 11.2 mph - N/A   Mostly Cloudy
3:15 PM 64.4 °F 51.8 °F 64% 29.24 in 6.2 mi South 13.4 mph - N/A   Mostly Cloudy
3:45 PM - - N/A% - 6.2 mi South 13.4 mph 26.8 mph N/A   Overcast
4:15 PM 62.6 °F 51.8 °F 68% 29.24 in - South 11.2 mph - N/A   Clear
4:45 PM 60.8 °F 53.6 °F 77% 29.24 in - South 11.2 mph - N/A   Clear
5:15 PM 60.8 °F 53.6 °F 77% 29.24 in - SSE 8.9 mph - N/A   Clear
5:45 PM 60.8 °F 53.6 °F 77% 29.24 in - SSE 8.9 mph - N/A   Clear
6:15 PM 60.8 °F 53.6 °F 77% 29.24 in - SSE 8.9 mph - N/A   Clear
6:45 PM - - N/A% - 6.2 mi SSE 8.9 mph - N/A   Overcast
7:15 PM 60.8 °F 57.2 °F 88% 29.24 in 6.2 mi SSE 13.4 mph - N/A Rain Light Rain
7:45 PM 59.0 °F 57.2 °F 94% 29.24 in 5.0 mi SSE 13.4 mph 26.8 mph N/A Rain Light Rain
8:15 PM 59.0 °F 59.0 °F 100% 29.24 in 5.0 mi SSE 15.7 mph - N/A Rain Light Rain
8:45 PM 57.2 °F 57.2 °F 100% 29.24 in 3.7 mi SSE 13.4 mph 24.6 mph N/A Rain Rain
9:15 PM 57.2 °F 55.4 °F 94% 29.27 in 3.7 mi SSE 8.9 mph - N/A Rain Light Rain
9:45 PM - - N/A% - 6.2 mi SSE 8.9 mph - N/A   Overcast
10:15 PM 55.4 °F 55.4 °F 100% 29.27 in 3.7 mi WSW 6.7 mph - N/A Rain Light Rain
10:45 PM 53.6 °F 51.8 °F 94% 29.27 in 3.7 mi SW 8.9 mph - N/A Rain Light Rain
11:15 PM 51.8 °F 51.8 °F 100% 29.27 in 4.3 mi WNW 6.7 mph - N/A   Overcast
11:45 PM 50.0 °F 48.2 °F 94% 29.33 in 6.2 mi WNW 11.2 mph 22.4 mph N/A   Overcast